Kalaeloa, HI

8:27 PM HST on November 19, 2017 (GMT -1000)
Kalaeloa (John Rodgers Field)

Weather History for PHJR - February, 2013

Change the Weather History Date:

Sunday, February 17, 2013

  Actual Average (PHHI) Record (PHHI)
Temperature  
Mean Temperature 75 °F -  
Max Temperature 80 °F 74 °F 81 °F (2011)
Min Temperature 70 °F 61 °F 57 °F (1998)
Cooling Degree Days 10    
Growing Degree Days 25 (Base 50)    
Moisture  
Dew Point 57 °F    
Average Humidity 57    
Maximum Humidity 68    
Minimum Humidity 47    
Precipitation  
Precipitation 0.00 in - - ()
Sea Level Pressure  
Sea Level Pressure 30.14 in    
Wind  
Wind Speed 10 mph (ENE)    
Max Wind Speed 15 mph    
Max Gust Speed 30 mph    
Visibility 10 miles    
Events Rain    
Averages and records for this station are not official NWS values.
T = Trace of Precipitation, MM = Missing Value Source: NWS Daily Summary

Daily Weather History Graph

Daily Weather History Graph

Search for Another Location

Airport or City:

Trip Planner

Search our weather history database for the weather conditions in past years. The results will help you decide how hot, cold, wet, or windy it might be!

Date:

Astronomy

Feb. 17, 2013 Rise Set
Actual Time 7:01 AM HST 6:31 PM HST
Civil Twilight 6:38 AM HST 6:54 PM HST
Nautical Twilight 6:12 AM HST 7:20 PM HST
Astronomical Twilight 5:46 AM HST 7:46 PM HST
Moon 12:01 PM HST (2/17) 12:40 AM HST (2/17)
Length of Visible Light 12h 15m
Length of Day
11h 30m
Waxing Crescent, 51% of the Moon is Illuminated
Feb 17
Waxing Crescent
Feb 25
Full
Mar 4
Last Quarter
Mar 11
New
Mar 19
First Quarter

Hourly Weather History & Observations

Time (HST) Temp. Heat Index Dew Point Humidity Pressure Visibility Wind Dir Wind Speed Gust Speed Precip Events Conditions
12:53 AM 71.1 °F - 57.0 °F 61% 30.14 in 10.0 mi ENE 12.7 mph 20.7 mph N/A   Clear
1:53 AM 71.1 °F - 57.0 °F 61% 30.14 in 10.0 mi ENE 10.4 mph 18.4 mph N/A   Clear
2:53 AM 71.1 °F - 55.9 °F 59% 30.12 in 10.0 mi ENE 11.5 mph 18.4 mph N/A   Clear
3:53 AM 71.1 °F - 57.0 °F 61% 30.11 in 10.0 mi ENE 8.1 mph 19.6 mph N/A   Clear
4:53 AM 71.1 °F - 57.0 °F 61% 30.12 in 10.0 mi ENE 8.1 mph - N/A   Clear
5:53 AM 71.1 °F - 57.9 °F 63% 30.12 in 10.0 mi ENE 8.1 mph - N/A   Clear
6:53 AM 70.0 °F - 59.0 °F 68% 30.15 in 10.0 mi Variable 5.8 mph - 0.00 in   Scattered Clouds
7:53 AM 72.0 °F - 59.0 °F 64% 30.16 in 10.0 mi ENE 13.8 mph 23.0 mph N/A   Overcast
8:53 AM 73.0 °F - 57.9 °F 59% 30.19 in 10.0 mi ENE 9.2 mph 17.3 mph N/A   Partly Cloudy
9:53 AM 73.9 °F - 60.1 °F 62% 30.19 in 10.0 mi ENE 8.1 mph 25.3 mph 0.00 in Rain Light Rain
10:53 AM 77.0 °F - 57.0 °F 50% 30.19 in 10.0 mi ENE 10.4 mph 29.9 mph 0.00 in   Partly Cloudy
11:53 AM 79.0 °F - 57.9 °F 48% 30.16 in 10.0 mi ENE 9.2 mph 26.5 mph N/A   Partly Cloudy
12:53 PM 79.0 °F - 57.9 °F 48% 30.14 in 10.0 mi ENE 11.5 mph 26.5 mph N/A   Clear
1:53 PM 79.0 °F - 57.0 °F 47% 30.11 in 10.0 mi ENE 15.0 mph 27.6 mph N/A   Clear
2:53 PM 80.1 °F 80.6 °F 57.9 °F 47% 30.09 in 10.0 mi ENE 12.7 mph 27.6 mph N/A   Clear
3:53 PM 78.1 °F - 59.0 °F 52% 30.10 in 10.0 mi ENE 13.8 mph 26.5 mph N/A   Clear
4:53 PM 75.9 °F - 55.9 °F 50% 30.10 in 10.0 mi ENE 11.5 mph 27.6 mph N/A   Clear
5:53 PM 73.9 °F - 55.9 °F 53% 30.12 in 10.0 mi ENE 10.4 mph 24.2 mph N/A   Clear
6:11 PM 73.4 °F - 53.6 °F 50% 30.10 in 10.0 mi ENE 8.1 mph 21.9 mph N/A   Partly Cloudy
7:53 PM 72.0 °F - 57.9 °F 61% 30.17 in 10.0 mi East 8.1 mph 20.7 mph N/A   Clear
8:53 PM 71.1 °F - 57.0 °F 61% 30.19 in 10.0 mi East 6.9 mph - N/A   Clear
9:53 PM 72.0 °F - 57.9 °F 61% 30.20 in 10.0 mi East 10.4 mph 20.7 mph N/A   Clear
10:53 PM 71.1 °F - 57.9 °F 63% 30.19 in 10.0 mi Variable 6.9 mph - N/A   Clear
11:53 PM 71.1 °F - 57.9 °F 63% 30.18 in 10.0 mi ENE 6.9 mph 18.4 mph N/A   Clear